Regional Weather Roundup
Issued by NWS

Home | Current Version | Previous Version | Text Only | Print | Product List | Glossary On
Versions: 1 2 3 4 5 6 7 8 9 10 11 12 13 14 15 16 17 18 19 20 21 22 23 24 25 26 27 28 29 30 31 32 33 34 35 36 37 38 39 40 41 42 43 44 45 46 47 48 49 50
000
ASUS45 KBOI 051110
RWRID

IDAHO REGIONAL WEATHER ROUNDUP
NATIONAL WEATHER SERVICE BOISE ID
500 AM MDT SAT SEP 05 2015

NOTE: "FAIR" INDICATES FEW OR NO CLOUDS BELOW 12000 FEET
WITH NO SIGNIFICANT WEATHER AND/OR OBSTRUCTIONS TO VISIBILITY

IDZ012-014-051200-
SOUTHWEST IDAHO


CITY           SKY/WX    TMP DP  RH WIND       PRES   REMARKS
BOISE          CLEAR     48  40  73 CALM      29.94R
CALDWELL       MOCLDY    48  30  49 SW5       29.96R
MOUNTAIN HOME  PTCLDY    47  39  73 N8        29.93R
$$

IDZ016-017-051200-
SOUTHCENTRAL IDAHO


CITY           SKY/WX    TMP DP  RH WIND       PRES   REMARKS
BURLEY         MOCLDY    49  38  65 W10       29.92R
JEROME         CLOUDY    48  38  68 SW9       29.92R
TWIN FALLS     CLOUDY    50  36  58 SW7       29.93R
$$

IDZ019>023-051200-
SOUTHEAST IDAHO


CITY           SKY/WX    TMP DP  RH WIND       PRES   REMARKS
IDAHO FALLS    CLEAR     50  36  58 S18G25    29.90R
POCATELLO      CLEAR     51  35  54 SW18      29.92R
REXBURG        PTCLDY    51  37  58 SW15G23   29.87R
$$

IDZ006-010-011-018-031-032-051200-
CENTRAL IDAHO MOUNTAINS


CITY           SKY/WX    TMP DP  RH WIND       PRES   REMARKS
MCCALL         CLOUDY    41  37  86 VRB3      29.89R
HAILEY         CLOUDY    50  37  62 SE9       29.92R
STANLEY          N/A     45  29  53 S8        29.90S
SALMON         CLOUDY    48  46  93 CALM      29.88R
CHALLIS        CLOUDY    48  41  76 CALM      29.90S
$$

IDZ002-004-006-007-026-051200-
NORTHERN IDAHO


CITY           SKY/WX    TMP DP  RH WIND       PRES   REMARKS
LEWISTON       CLOUDY    54  44  69 SW3       29.85R
LOWELL           N/A     52  51  97 CALM      29.86R
COEUR D`ALENE  CLOUDY    52  45  76 N9        29.80S
MULLAN PASS    LGT RAIN  38  38 100 VRB6      29.84F VSB 1/2 WCI  33
$$



USA.gov is the U.S. government's official web portal to all federal, state and local government web resources and services.